This is the latest recevied weather packets stored in our database for station/object LX0WX-13. If no packets are shown the sender has not sent any weather packets the latest 1 day(s).
| Time | Temp. | Humidity | Pressure | Rain* | Wind** | Luminosity | Snow |
|---|---|---|---|---|---|---|---|
| 1777991152 | 12.22° C | 88% | 1003.9 hPa | 2.03 mm | 0 m/s | - | - |
| 1777990852 | 12.22° C | 88% | 1003.9 hPa | 2.03 mm | 0 m/s | - | - |
| 1777990552 | 12.22° C | 88% | 1003.9 hPa | 2.03 mm | 0 m/s | - | - |
| 1777990252 | 12.22° C | 87% | 1004 hPa | 2.03 mm | 0 m/s | - | - |
| 1777989952 | 12.22° C | 87% | 1004 hPa | 3.56 mm | 0 m/s | - | - |
| 1777989652 | 12.22° C | 87% | 1004 hPa | 3.56 mm | 0 m/s | - | - |
| 1777989352 | 12.22° C | 87% | 1004.1 hPa | 3.56 mm | 0 m/s | - | - |
| 1777989052 | 12.22° C | 86% | 1004.1 hPa | 3.56 mm | 0 m/s | - | - |
| 1777988752 | 12.22° C | 86% | 1004.1 hPa | 3.56 mm | 0 m/s | - | - |
| 1777988452 | 12.22° C | 86% | 1004.1 hPa | 3.56 mm | 0 m/s | - | - |
| 1777988152 | 12.22° C | 85% | 1004.1 hPa | 3.56 mm | 0 m/s | - | - |
| 1777987853 | 12.22° C | 84% | 1004.2 hPa | 3.56 mm | 0 m/s | - | - |
| 1777987552 | 12.22° C | 84% | 1004.2 hPa | 3.05 mm | 0 m/s | - | - |
| 1777987252 | 12.22° C | 83% | 1004.3 hPa | 3.05 mm | 0 m/s | - | - |
| 1777986952 | 12.22° C | 82% | 1004.3 hPa | 3.05 mm | 0 m/s | - | - |
| 1777986652 | 12.78° C | 81% | 1004.3 hPa | 2.03 mm | 0 m/s | - | - |
| 1777986352 | 12.78° C | 81% | 1004.3 hPa | 1.02 mm | 0 m/s | - | - |
| 1777986052 | 12.78° C | 80% | 1004.4 hPa | 0.51 mm | 0 m/s | - | - |
| 1777985752 | 12.78° C | 79% | 1004.2 hPa | 0.51 mm | 0 m/s | - | - |
| 1777985452 | 12.78° C | 78% | 1004 hPa | 0 mm | 0 m/s | - | - |
| 1777985152 | 12.78° C | 77% | 1004.2 hPa | 0 mm | 0 m/s | - | - |
| 1777984852 | 12.78° C | 76% | 1004.2 hPa | 0 mm | 0 m/s | - | - |
| 1777984552 | 13.33° C | 74% | 1004.3 hPa | 0 mm | 0 m/s | - | - |
| 1777984252 | 13.33° C | 73% | 1004.4 hPa | 0 mm | 0 m/s | - | - |
| 1777983952 | 13.89° C | 72% | 1004.2 hPa | 0 mm | 0 m/s | - | - |
* Rain latest hour (hover to see other rain measurements)
** Current wind speed in m/s (hover to see current wind gust speed)